GEFSNE_500_meanwind_264.txt.gz
Wind_Speed
12 12 12 11 12 12 12 12 13 12 12 12 13 13 14 14 14 15 15 15 16 16 17 18 18 19 19 19 20 20 20 20 21 21 21 21 21 22
13 13 11 11 12 12 13 12 12 12 13 14 14 14 14 15 15 15 16 16 17 18 19 19 19 20 20 20 20 21 21 21 21 22 23 23 24 24
13 13 12 12 12 12 13 13 13 13 14 14 14 15 15 16 16 16 17 17 18 19 19 20 20 20 21 21 21 21 22 22 23 23 24 25 25 25
14 14 13 14 14 14 14 14 15 15 15 15 15 16 17 18 18 19 19 20 20 20 20 21 21 21 21 22 22 23 23 24 24 24 25 25 26 26
15 15 15 15 15 15 15 15 16 17 17 17 18 18 18 19 20 20 21 21 21 21 21 21 21 22 22 22 22 23 23 23 24 24 25 25 26 26
16 16 16 16 16 17 17 18 18 19 19 19 19 19 20 21 22 22 22 23 23 23 22 22 22 22 23 23 23 24 24 24 25 25 26 26 27 27
17 17 17 17 17 17 18 19 19 19 19 20 20 20 21 22 23 23 24 24 23 23 23 23 24 24 24 25 25 25 25 26 26 27 27 27 27 27
18 18 18 18 19 19 20 20 21 20 21 21 21 21 21 22 22 23 23 23 23 24 24 24 24 25 25 25 25 26 26 27 27 27 27 27 27 28
19 20 20 20 21 21 21 21 21 22 22 22 22 22 22 23 23 23 23 23 24 24 24 24 24 25 26 26 27 27 27 28 28 28 28 28 28 29
20 21 21 22 22 22 22 22 22 22 21 22 22 22 22 23 24 24 23 24 23 23 24 24 25 26 26 27 27 27 28 28 28 29 29 29 29 29
22 22 23 23 23 23 23 22 21 22 22 22 22 23 23 23 24 24 24 24 24 24 25 25 26 27 27 28 28 28 28 28 29 29 29 30 30 30
23 23 23 23 23 23 23 22 22 22 23 23 23 24 24 25 25 25 25 25 25 25 26 26 26 27 27 28 28 28 28 29 30 30 30 30 31 31
24 25 25 24 24 24 24 24 24 23 23 24 25 25 25 26 26 25 25 26 26 26 26 27 28 28 28 28 28 29 29 30 30 30 30 31 31 31
25 25 25 25 25 25 25 25 25 25 25 25 26 26 26 26 26 27 27 27 26 27 28 28 28 29 29 29 30 30 30 31 30 30 31 31 31 32
27 26 26 26 26 26 26 26 26 25 25 26 26 26 27 27 27 27 27 26 27 28 28 28 28 29 29 30 30 31 31 31 31 30 30 31 32 32
27 26 26 26 27 27 27 26 26 26 26 26 26 27 27 27 27 27 27 27 28 28 28 28 29 29 29 30 30 31 31 31 31 31 31 32 32 33
27 26 25 25 25 26 26 27 27 27 27 27 27 27 27 27 27 27 27 27 28 28 28 28 29 29 29 30 30 31 31 32 32 33 33 33 34 34
27 26 25 25 25 26 26 27 28 28 27 27 27 28 27 27 26 27 28 28 28 28 28 28 29 29 30 30 31 31 32 32 33 33 34 34 34 35
26 26 26 26 26 26 27 27 27 27 27 28 28 27 27 27 27 27 28 28 29 29 29 29 29 30 31 31 32 33 33 34 34 34 34 33 34 34
27 27 27 26 26 26 27 27 27 27 27 27 26 27 27 27 28 28 28 29 29 30 30 30 31 31 31 31 32 33 33 33 34 34 34 34 33 33
28 27 27 27 27 26 27 27 27 27 27 27 27 27 27 27 28 29 29 30 30 30 30 30 31 31 31 31 31 32 33 33 34 34 34 34 33 33
28 27 27 27 27 27 28 28 28 27 26 26 26 27 28 28 29 29 30 30 30 29 30 30 31 31 31 31 32 32 32 32 33 34 34 34 33 33
28 28 28 28 28 28 28 28 27 26 26 26 27 27 27 28 29 30 30 30 29 30 30 31 31 32 32 32 33 33 32 32 32 32 33 33 33 33

GEFSNE_500_meanwind_270.txt.gz
Wind_Speed
11 12 12 12 12 12 12 12 11 11 12 12 13 12 13 14 14 15 15 15 15 16 17 17 18 18 18 19 19 20 21 21 22 22 23 23 24 24
12 12 12 12 11 10 11 12 12 12 12 13 14 14 14 15 15 15 16 16 17 17 18 19 19 20 19 20 20 20 21 22 22 23 24 24 24 25
12 12 12 12 12 12 12 12 13 13 14 14 14 14 15 16 16 17 18 18 18 18 19 19 20 21 21 21 22 22 22 22 23 24 25 25 25 26
13 13 13 13 13 14 14 14 14 14 14 15 15 15 16 17 17 18 19 20 20 20 21 21 22 21 22 22 23 23 23 23 24 25 25 26 26 27
14 14 14 14 14 15 15 15 15 15 15 16 16 16 17 18 19 20 20 20 21 22 22 22 22 22 22 22 22 22 22 23 24 24 24 25 26 26
15 15 14 15 15 16 16 16 16 17 17 17 18 18 19 20 20 20 21 21 22 22 22 22 22 22 22 22 22 23 23 23 24 24 25 25 26 26
16 16 15 16 16 17 17 17 17 18 18 19 20 20 21 22 22 22 22 23 23 22 22 22 22 22 22 22 23 23 24 24 25 25 26 26 26 26
17 17 17 18 18 18 18 18 18 19 19 20 20 20 21 21 22 22 22 22 21 21 21 21 20 21 22 23 23 24 25 25 26 26 26 26 26 27
18 19 19 19 19 19 19 20 19 20 20 21 21 21 21 22 22 21 21 21 21 21 21 21 21 22 24 24 25 25 25 25 25 25 26 26 27 27
19 19 20 20 20 20 21 21 21 20 21 21 21 21 21 21 20 20 21 21 21 21 22 23 24 24 24 24 25 25 26 26 26 27 27 27 28 28
20 20 21 21 21 21 22 22 21 21 22 22 21 21 21 22 22 22 22 22 22 22 22 23 24 25 25 26 26 27 27 28 28 28 28 28 29 29
21 21 21 21 21 21 21 22 22 22 22 22 22 22 22 22 22 23 23 23 23 23 24 24 25 25 26 26 27 28 28 29 29 29 29 29 30 31
22 22 22 22 23 22 22 22 23 23 22 22 22 23 23 23 23 23 23 23 23 24 24 25 25 25 26 27 28 28 28 28 29 30 30 30 31 30
23 23 23 24 24 23 24 23 23 23 23 23 23 23 23 23 23 23 24 24 24 25 26 26 25 26 27 28 28 28 28 29 29 30 30 30 30 30
24 24 24 23 24 24 23 23 23 23 23 24 24 24 24 24 24 24 25 25 26 26 26 26 26 26 27 27 28 28 28 28 29 29 30 30 31 31
25 25 24 23 23 23 23 23 23 24 24 25 24 24 24 25 25 25 25 26 26 27 27 27 26 26 26 27 28 28 29 28 28 28 29 30 31 32
25 25 25 24 24 24 24 24 24 25 25 25 25 24 25 25 25 26 26 26 26 26 27 28 27 27 27 28 28 29 29 29 29 29 30 31 31 32
26 26 25 25 24 25 25 25 24 25 25 25 25 24 24 24 25 25 26 26 27 27 27 27 27 28 28 28 29 29 29 30 30 30 31 31 31 32
26 26 25 25 25 25 25 25 25 25 25 25 25 25 25 25 25 25 26 26 27 27 27 28 28 29 29 29 29 30 30 30 31 31 31 32 33 33
27 26 25 25 25 25 25 25 26 25 25 25 25 25 25 25 25 25 26 26 27 27 28 29 29 29 29 30 30 31 31 31 31 32 32 32 33 33
26 25 25 25 25 25 25 25 26 25 25 25 25 25 26 25 26 26 27 27 27 27 28 28 29 30 30 30 31 31 31 32 32 32 33 33 33 33
27 26 26 26 25 25 26 26 25 25 25 25 25 25 26 26 26 27 28 28 27 27 28 29 29 30 30 30 31 31 31 31 32 32 33 33 33 33
27 27 27 27 26 26 26 26 26 26 26 26 26 26 26 27 27 28 28 28 28 28 28 29 29 30 30 30 30 31 31 32 32 32 33 33 33 33

GEFSNE_500_meanwind_276.txt.gz
Wind_Speed
12 13 13 14 13 13 14 14 13 13 13 14 14 15 15 15 16 17 17 18 19 19 20 20 21 21 21 22 22 22 23 24 24 24 24 24 24 23
13 14 13 14 14 14 15 15 15 15 15 15 15 15 16 16 17 17 18 19 19 19 19 20 21 21 21 21 22 22 23 24 24 25 25 25 25 25
14 15 15 15 15 15 15 16 16 16 15 15 16 16 17 18 18 18 18 19 20 20 21 22 23 23 23 23 24 23 24 24 25 25 25 25 25 25
16 16 16 17 17 17 17 17 17 17 17 17 17 18 18 18 18 19 20 21 22 22 22 23 23 24 24 24 24 24 24 24 24 25 25 24 24 24
17 17 17 18 18 18 17 18 18 18 18 18 18 18 19 19 19 20 21 22 23 23 23 24 24 25 24 24 24 24 23 23 24 24 25 24 24 25
18 19 18 18 18 18 18 19 19 19 19 19 19 19 20 19 20 21 22 22 23 23 24 24 24 24 24 25 24 24 24 24 24 24 24 24 24 25
20 20 19 19 19 19 19 20 20 19 20 20 20 20 20 20 21 21 22 23 23 23 23 23 23 24 24 24 24 24 24 25 24 23 24 24 24 25
20 20 20 19 19 20 20 21 21 21 21 21 21 21 21 22 22 23 23 22 22 23 23 22 22 23 23 23 24 24 24 24 24 24 24 24 25 25
21 20 20 20 20 21 22 22 22 22 22 22 22 22 22 23 23 24 24 24 24 23 23 23 22 23 23 23 23 24 24 24 25 25 25 25 26 26
21 21 21 21 22 22 22 23 23 23 23 23 23 23 23 23 23 24 24 23 23 23 23 23 24 23 24 24 24 24 24 25 25 25 26 26 27 27
22 22 22 23 23 23 23 24 24 24 25 25 24 24 24 24 24 24 24 24 23 23 24 24 24 24 24 24 25 25 25 25 26 26 26 27 27 28
23 23 23 23 23 24 24 25 25 25 25 24 24 25 25 24 24 25 24 24 24 24 24 24 25 25 25 26 26 26 25 26 26 27 27 28 29 29
24 24 24 24 24 24 25 25 25 25 25 25 25 25 25 25 24 24 24 24 24 24 25 25 25 25 26 26 26 26 27 27 28 28 29 29 30 30
25 25 26 26 26 26 26 26 26 25 25 26 26 26 26 25 25 24 24 24 25 25 25 26 26 26 26 26 26 26 27 28 28 29 29 30 30 31
27 28 28 28 28 27 27 27 27 27 26 26 27 27 26 26 26 25 25 25 25 26 26 27 27 27 26 26 26 27 28 29 29 30 30 31 31 31
28 29 29 29 29 29 28 28 29 28 28 27 27 27 26 26 27 27 26 26 26 27 27 27 28 27 27 28 28 29 29 30 30 31 31 31 31 31
29 29 29 28 29 29 29 29 29 28 28 28 28 28 28 28 28 27 27 27 27 27 27 27 27 28 28 29 29 30 30 31 32 32 31 31 31 31
29 29 28 28 29 29 29 29 28 28 28 27 27 28 28 28 28 28 27 27 26 26 26 26 27 28 28 29 29 31 31 31 31 31 31 31 32 32
29 29 29 29 29 29 29 28 28 28 28 28 28 28 28 28 28 27 27 27 26 26 26 27 28 28 29 29 29 31 31 31 31 31 31 32 32 32
29 29 29 29 29 29 29 28 28 28 28 28 29 29 28 28 27 27 27 27 27 27 27 27 28 28 29 29 29 30 32 31 31 31 32 33 33 33
28 29 29 29 29 29 29 28 28 29 28 28 29 29 29 28 27 27 27 26 27 26 27 28 28 29 30 29 30 30 30 31 31 31 32 32 32 32
28 29 29 29 29 28 29 29 29 29 29 29 28 28 28 28 27 27 27 27 27 28 29 29 29 29 30 30 30 30 30 30 31 31 32 32 32 32
29 29 29 29 28 29 29 29 29 28 28 28 28 28 28 28 28 28 28 28 28 29 29 29 30 31 31 31 30 30 30 30 31 32 32 32 32 32

GEFSNE_500_meanwind_282.txt.gz
Wind_Speed
12 12 13 13 12 13 14 14 14 14 14 15 15 15 15 15 16 17 18 19 19 20 20 20 20 20 21 21 21 22 22 24 24 24 24 24 24 24
13 12 12 12 13 14 14 14 14 14 14 15 15 15 16 16 16 17 17 18 19 20 20 20 21 20 20 21 21 22 23 23 23 23 23 23 24 24
13 13 13 14 14 15 15 15 15 16 16 16 17 17 17 18 17 17 18 18 18 18 19 19 20 20 21 22 22 22 23 24 24 24 24 24 25 25
14 14 15 15 15 15 15 16 16 17 17 17 17 18 18 18 18 18 18 18 19 19 20 20 20 20 21 22 23 23 23 24 25 25 24 24 25 25
16 16 16 16 16 16 16 17 17 17 18 18 19 19 19 19 19 19 19 19 19 20 21 21 22 22 22 22 22 22 23 23 24 24 23 24 24 25
17 17 17 17 17 18 18 18 18 18 19 19 19 19 19 19 20 19 20 20 21 21 21 22 23 23 23 23 23 23 24 24 24 23 23 23 23 24
18 18 19 19 19 19 19 18 18 19 19 20 20 20 20 20 21 21 22 22 22 22 22 23 23 23 23 23 24 24 24 24 24 23 24 24 23 23
19 19 19 19 19 20 20 19 19 20 21 21 21 21 21 22 22 22 22 23 23 23 23 24 24 23 23 24 24 24 24 24 24 24 24 24 24 24
20 20 21 21 21 21 21 21 21 22 22 22 22 23 23 23 23 23 24 24 24 23 24 24 24 24 24 24 24 24 24 24 24 24 24 24 24 25
21 22 22 22 22 22 23 23 23 23 23 23 23 23 23 24 24 24 24 25 24 24 24 24 24 24 24 24 24 25 25 25 25 25 24 24 24 25
23 24 24 24 23 24 24 24 24 24 24 24 24 24 24 24 24 24 24 25 24 24 24 24 24 24 24 23 24 25 25 25 25 25 25 25 25 26
25 25 24 24 24 24 25 25 25 25 25 25 25 25 24 24 24 24 25 25 25 24 24 24 24 24 24 25 25 25 25 25 25 25 26 27 27 27
27 26 26 26 26 26 26 26 26 26 26 26 25 25 25 25 25 25 26 26 25 25 25 25 25 25 25 25 25 25 26 26 27 27 27 27 28 28
27 27 27 27 27 27 27 26 26 26 26 26 26 26 26 25 25 25 26 27 26 25 25 26 26 26 26 26 26 26 27 28 27 27 28 28 29 29
28 28 28 28 28 27 27 27 27 27 27 27 27 26 27 27 28 27 27 27 27 26 26 26 27 27 28 27 27 27 28 28 28 28 28 28 28 29
29 28 28 28 28 28 28 28 28 28 27 27 28 28 28 28 28 28 28 28 27 26 27 27 27 27 28 29 29 28 28 28 28 27 28 29 28 29
28 28 28 28 28 28 28 28 28 28 28 27 27 28 28 28 28 28 28 28 28 27 27 27 27 27 28 28 27 27 27 27 28 28 28 28 29 29
27 28 28 28 28 28 28 28 27 27 27 27 27 27 28 28 28 28 28 28 28 27 27 27 27 27 26 27 27 27 27 27 28 29 29 29 29 29
27 27 27 28 28 28 28 28 28 28 28 28 28 28 28 28 27 27 28 28 27 26 26 26 27 26 25 25 25 26 26 27 27 28 29 29 29 29
27 27 26 26 27 27 27 27 28 28 28 29 29 28 28 28 28 28 28 27 27 26 26 27 27 26 25 24 25 26 27 27 27 27 28 29 29 30
28 27 27 27 27 27 27 27 28 28 29 29 28 28 28 28 28 27 28 28 28 27 27 27 26 26 25 25 25 25 26 27 28 28 29 29 29 30
28 27 27 27 27 27 27 28 28 28 27 28 28 28 28 28 28 28 28 28 28 28 27 26 25 25 24 25 26 26 26 27 28 28 29 29 30 30
28 28 27 27 28 29 29 28 28 28 28 28 29 28 28 28 28 28 28 28 28 27 26 26 25 25 25 25 26 27 28 28 28 28 29 30 30 30

GEFSNE_500_meanwind_288.txt.gz
Wind_Speed
12 12 12 12 12 12 12 12 12 13 14 14 14 15 15 15 14 14 15 15 15 16 16 17 17 17 17 18 19 20 20 20 20 21 21 21 22 22
13 13 13 12 12 13 13 14 14 14 14 15 15 15 15 16 15 15 15 16 16 16 16 16 16 17 18 19 19 19 20 20 20 21 21 22 22 23
14 14 14 13 14 14 15 15 15 16 15 16 16 16 16 17 16 16 16 17 17 17 17 17 17 17 17 19 20 21 21 21 21 21 22 21 22 22
15 15 15 15 15 16 16 16 17 18 18 17 17 18 18 18 17 17 18 17 17 18 18 18 18 18 18 19 20 21 21 22 22 22 22 22 22 22
17 17 17 16 16 17 18 18 18 18 19 18 19 19 19 19 19 19 19 18 18 18 19 20 19 19 19 20 21 21 22 22 22 23 23 23 23 23
18 18 18 17 17 18 18 19 19 19 20 20 20 20 20 20 20 20 20 20 20 20 20 20 20 20 20 21 22 22 22 23 23 23 23 23 24 23
18 19 19 19 19 19 19 20 20 21 21 21 22 22 21 21 21 21 21 22 22 21 21 22 22 22 22 22 23 23 23 23 23 23 24 24 23 23
19 19 20 21 20 20 20 21 21 22 22 22 23 22 22 22 22 22 22 22 22 22 22 22 22 22 22 22 23 22 23 24 24 24 24 24 24 23
20 20 20 21 22 22 23 23 24 24 24 24 23 23 23 23 23 23 23 23 23 23 23 22 23 22 22 22 23 23 23 23 23 23 23 23 24 24
22 21 22 23 24 25 25 25 26 26 27 26 26 26 25 25 25 24 24 24 24 24 24 23 23 23 22 22 23 23 23 23 23 23 23 23 23 24
24 24 25 26 27 27 27 27 27 27 28 27 27 26 26 25 25 24 24 24 24 24 25 25 24 24 23 23 23 24 23 24 24 24 24 25 25 24
26 26 26 27 27 28 28 28 28 29 29 28 28 27 26 25 25 25 25 25 25 25 25 25 25 25 24 24 24 25 25 25 25 25 25 26 26 25
27 27 27 28 28 29 29 30 30 30 29 29 28 27 26 26 25 26 26 26 26 26 25 25 25 26 26 25 25 25 24 25 26 26 26 26 26 26
27 27 27 28 29 29 30 30 30 30 30 29 28 27 27 27 26 26 26 26 26 26 26 26 26 26 26 26 26 26 25 25 26 27 27 28 27 27
28 28 28 29 29 29 30 30 30 30 29 29 28 27 27 27 27 27 27 26 27 26 26 26 26 26 26 26 26 27 27 27 27 28 28 27 27 27
28 29 29 29 30 29 29 30 30 29 28 28 27 27 27 27 27 27 27 26 26 26 26 26 26 26 26 27 27 27 28 28 28 27 27 26 26 26
30 30 30 29 30 30 30 30 29 28 28 28 27 27 27 27 27 26 26 26 26 26 26 26 26 26 26 27 27 27 28 28 28 28 27 27 26 26
30 30 30 29 30 30 29 29 28 28 28 28 27 27 27 27 27 27 27 26 25 25 25 25 26 26 26 26 27 27 27 26 27 27 27 27 27 27
31 31 30 30 30 30 29 29 29 29 28 28 28 28 28 28 28 27 27 27 26 26 26 26 26 26 26 27 27 27 27 26 26 26 26 27 27 27
32 31 32 31 31 30 30 30 30 29 29 28 28 28 28 28 28 27 27 27 27 27 27 27 27 27 27 27 26 27 27 26 26 26 26 26 26 26
32 32 31 31 31 31 31 30 29 29 28 28 27 27 27 28 28 28 28 28 27 27 27 27 27 27 27 27 27 26 26 26 26 25 25 26 26 26
33 32 31 30 31 30 30 29 29 29 28 28 27 28 28 28 28 28 29 29 29 29 29 28 28 28 28 28 27 27 27 26 26 26 26 26 26 26
32 31 31 30 30 30 29 30 29 29 29 29 28 29 29 28 29 29 30 30 30 29 29 29 28 29 29 29 28 27 27 27 26 26 26 27 27 27